Regional Weather Roundup
Issued by NWS

Home | Current Version | Previous Version | Text Only | Print | Product List | Glossary Off
Versions: 1 2 3 4 5 6 7 8 9 10 11 12 13 14 15 16 17 18 19 20 21 22 23 24 25 26 27 28 29 30 31 32 33 34 35 36 37 38 39 40 41 42 43 44 45 46 47 48 49 50

404
ASUS43 KMPX 040110
RWRMN
WEATHER ROUNDUP FOR MINNESOTA
NATIONAL WEATHER SERVICE TWIN CITIES/CHANHASSEN MN
800 PM CDT TUE MAY 03 2016


NOTE: "FAIR" INDICATES FEW OR NO CLOUDS BELOW 12,000 FEET WITH NO
SIGNIFICANT WEATHER AND/OR OBSTRUCTIONS TO VISIBILITY. N/A MEANS
CURRENT SKY AND/OR WEATHER CONDITIONS ARE NOT AVAILABLE.

MNZ060>063-068>070-040200-
   Twin Cities Metro

CITY           SKY/WX    TMP DP  RH WIND       PRES   REMARKS
TWIN CITIES    PTCLDY    67  27  22 N20G29    29.69R
ST PAUL        CLEAR     66  30  26 N17G30    29.69R
CRYSTAL        CLEAR     68  26  20 N16G26    29.69R
BLAINE         CLEAR     66  27  22 N20G25    29.70R
EDEN PRAIRIE   CLEAR     68  29  23 N15G24    29.68R
SOUTH ST PAUL  CLEAR     67  28  22 N14G25    29.68R
LAKE ELMO      FAIR      64  32  29 N14G22    29.69R
$$
MNZ001>005-007-008-013>017-022>024-027-028-040200-
   Northwest Minnesota

CITY           SKY/WX    TMP DP  RH WIND       PRES   REMARKS
BEMIDJI        CLEAR     56  30  36 N15G22    29.87R
HALLOCK        CLEAR     57  25  28 N16G23    29.96R
ROSEAU         CLEAR     59  37  44 N13       29.92S
WARROAD        CLEAR     55  39  54 NE8       29.92R
THIEF RVR FALL CLEAR     59  30  33 N20       29.93R
CROOKSTON      CLEAR     61  28  29 N18       29.93R
FOSSTON        CLEAR     61  28  29 N15       29.90R
DETROIT LAKES  CLEAR     61  30  31 N16G29    29.88R
MOORHEAD       CLEAR     63  25  23 N20G32    29.90R
PARK RAPIDS    CLEAR     60  27  28 N13G22    29.84R
MAHNOMEN       FAIR      60  31  33 N22       29.88R
$$
MNZ006-009>011-018-025>026-040200-
   North Central Minnesota

CITY           SKY/WX    TMP DP  RH WIND       PRES   REMARKS
BAUDETTE       CLEAR     56  31  38 N12       29.90R
FLAG ISLAND    CLEAR     54  37  54 N13       29.91S
INTL FALLS     PTCLDY    54  32  43 NE13      29.89R
WASKISH        CLEAR     57  36  44 N10G18    29.89R
BIG FORK       CLEAR     55  32  41 N15G22    29.85R
LONGVILLE      CLEAR     59  28  31 N8G18     29.82R
GRAND RAPIDS   PTCLDY    57  28  33 N22G28    29.82R
CRANE LAKE     PTCLDY    52  30  43 N8G21     29.88R
ORR            PTCLDY    54  28  37 CALM      29.83R
COOK           PTCLDY    54  34  47 N10G20    29.84R
WALKER         FAIR      57  30  36 N16G23    29.85R
$$
MNZ012-019>021-037-040200-
   Northeast Minnesota

CITY           SKY/WX    TMP DP  RH WIND       PRES   REMARKS
DULUTH         PTCLDY    58  30  34 N18G26    29.75R
ELY            CLEAR     52  30  43 N5G22     29.82R
HIBBING        PTCLDY    55  31  39 N20G29    29.80R
EVELETH        CLEAR     55  32  41 N15G28    29.81R
DULUTH HARBOR  CLEAR     55  34  44 N23       29.75R
TWO HARBORS    CLEAR     61  37  41 N12G22    29.74R
SILVER BAY     PTCLDY    57  30  35 N10G23    29.75R
GRAND MARAIS     N/A     53  33  46 N15G30    29.77R
G MARAIS ARPRT CLEAR     46  30  53 N17G33    29.77R
$$
MNZ029>031-032-039>041-046>048-054>057-064-040200-
   West Central Minnesota

CITY           SKY/WX    TMP DP  RH WIND       PRES   REMARKS
FERGUS FALLS   CLEAR     63  27  25 N16G30    29.83R
WHEATON        CLEAR     64  30  27 N20G26    29.89R
MORRIS         CLEAR     64  27  24 N22G31    29.83R
ALEXANDRIA     CLEAR     61  27  27 N16       29.83R
ELBOW LAKE     FAIR      62  31  31 NW22G28   29.85R
WADENA         CLEAR     61  28  29 N13G22    29.82R
GLENWOOD       CLEAR     63  28  27 NW21      29.82R
APPLETON       CLEAR     66  25  20 N23G32    29.83R
BENSON         CLEAR     64  19  17 NE16G26   29.82R
ORTONVILLE     CLEAR     64  27  24 N23G29    29.85R
MADISON        CLEAR     64  27  24 N22G30    29.84R
WILLMAR        FAIR      64  28  25 NW21      29.80R
$$
MNZ033>034-036-042>043-049>051-058-059-040200-
   Central Minnesota

CITY           SKY/WX    TMP DP  RH WIND       PRES   REMARKS
ST CLOUD       CLEAR     63  23  21 N15G24    29.76R
SAUK CENTRE    FAIR      62  27  26 N16G22    29.79R
PAYNESVILLE    CLEAR     65  24  21 N13G22    29.78R
AITKIN         CLEAR     63  21  20 N17G23    29.77R
PINE RIVER     CLEAR     59  34  38 NW13G23   29.86R
BRAINERD       CLEAR     60  27  28 N15G24    29.80R
STAPLES        CLEAR     61  21  21 N18G25    29.82R
LONG PRAIRIE   FAIR      61  27  27 NW13G18   29.80R
LITTLE FALLS   CLEAR     61  23  23 N15G29    29.79R
LITCHFIELD     CLEAR     66  27  22 N18G25    29.76R
BUFFALO        CLEAR     65  25  21 N20       29.74R
MAPLE LAKE     CLEAR     64  32  29 N16G29    29.75R
HUTCHINSON     CLEAR     67  32  27 NW17      29.75R
$$
MNZ037-044-045-052-053-040200-
   East Central Minnesota

CITY           SKY/WX    TMP DP  RH WIND       PRES   REMARKS
PRINCETON      CLEAR     64  25  22 N15G24    29.75R
MORA           CLEAR     61  27  27 N9G20     29.76R
CAMBRIDGE      CLEAR     66  39  37 NW10G17   29.71R
RUSH CITY      PTCLDY    63  27  26 N13G20    29.72R
MOOSE LAKE     CLEAR     61  30  31 N15G23    29.74R
HINCKLEY       CLOUDY    63  30  29 N15G21    29.73R
CLOQUET        CLEAR     61  25  25 N14G24    29.76R
MCGREGOR       CLEAR     61  30  31 N14G22    29.77R
$$
MNZ071>073-080-081-089-090-097-098-040200-
   Southwest Minnesota

CITY           SKY/WX    TMP DP  RH WIND       PRES   REMARKS
MONTEVIDEO     CLEAR     64  28  25 N23G31    29.83R HAZE
GRANITE FALLS  CLEAR     67  29  24 NW21G30   29.82R
CANBY          CLEAR     66  31  26 N20G25    29.85R
MARSHALL       CLEAR     66  28  24 N24G30    29.81R
REDWOOD FALLS  CLEAR     67  22  18 N13G30    29.77R
OLIVIA         CLEAR     64  27  24 N26       29.77R
PIPESTONE      CLEAR     64  19  17 N18G25    29.83R
WINDOM         CLEAR     64  25  22 NW23G33   29.78R
WORTHINGTON    CLEAR     63  36  36 N22       29.80R
JACKSON        PTCLDY    66  28  24 NW21G26   29.78R
TRACY          CLEAR     66  30  25 N21G28    29.81R
SLAYTON        CLEAR     64  28  25 N21G30    29.82R
$$
MNZ065>067-074>077-082>085-091>093-040200-
   South Central Minnesota

CITY           SKY/WX    TMP DP  RH WIND       PRES   REMARKS
MANKATO        CLEAR    N/A N/A N/A NW23G30   29.69R
NEW ULM        CLEAR     68  27  21 N22G28    29.72R
ST JAMES       CLEAR     63  23  22 NW23      29.74R
FAIRMONT       CLOUDY    66  34  30 NW13G22   29.74R
GLENCOE        CLEAR     68  31  25 NW17G26   29.72R
FARIBAULT      CLOUDY    70  37  30 W16G25    29.67F
OWATONNA       CLOUDY    66  39  37 W13       29.67S
WASECA         PTCLDY    68  32  26 NW20G26   29.69S
ALBERT LEA     CLOUDY    66  39  37 W8        29.68F
$$
MNZ078>079-086>088-094>096-040200-
   Southeast Minnesota

CITY           SKY/WX    TMP DP  RH WIND       PRES   REMARKS
ROCHESTER      LGT RAIN  59  47  64 NW8G31    29.67F
RED WING       PTCLDY    63  43  48 CALM      29.65R
STANTON        PTCLDY    64  43  47 NW10      29.65S
DODGE CENTER   MOCLDY    64  41  42 N9        29.67S
WINONA         MOCLDY    70  41  35 NW12      29.63F
AUSTIN         CLOUDY    64  43  45 W6        29.67F
PRESTON        MOCLDY    62  43  49 W12       29.67F
$$
ABBREVIATIONS USED IN REMARKS
   TC - TEMPERATURES IN CELSIUS
  WCI - WIND CHILL INDEX
   HX - HEAT INDEX
  VSB - VISIBILITY
$$




USA.gov is the U.S. government's official web portal to all federal, state and local government web resources and services.